Time,TemperatureF,DewpointF,PressureIn,WindDirection,WindDirectionDegrees,WindSpeedMPH,WindSpeedGustMPH,Humidity,HourlyPrecipIn,Conditions,Clouds,dailyrainin,SoftwareType,DateUTC
2013-10-27 00:01:00,46.2,33.5,29.86,SSW,192,3.0,9.0,61,0.00,,---,0.00,VWS V13.00,2013-10-27 04:01:00,
2013-10-27 00:06:00,46.1,33.8,29.86,SSW,213,2.0,2.0,62,0.00,,---,0.00,VWS V13.00,2013-10-27 04:06:00,
2013-10-27 00:11:00,46.1,33.4,29.86,SSW,203,9.0,11.0,61,0.00,,---,0.00,VWS V13.00,2013-10-27 04:11:00,
2013-10-27 00:16:00,46.2,33.5,29.86,SW,226,7.0,11.0,61,0.00,,---,0.00,VWS V13.00,2013-10-27 04:16:00,
2013-10-27 00:21:00,46.2,33.5,29.86,West,259,4.0,11.0,61,0.00,,---,0.00,VWS V13.00,2013-10-27 04:21:00,
2013-10-27 00:26:00,46.1,33.8,29.85,SSW,213,5.0,11.0,62,0.00,,---,0.00,VWS V13.00,2013-10-27 04:26:00,
2013-10-27 00:31:00,46.1,33.8,29.86,SSW,207,4.0,11.0,62,0.00,,---,0.00,VWS V13.00,2013-10-27 04:31:00,
2013-10-27 00:36:00,46.1,33.8,29.86,SW,220,4.0,5.0,62,0.00,,---,0.00,VWS V13.00,2013-10-27 04:36:00,
2013-10-27 00:41:00,46.0,34.1,29.85,SSW,207,11.0,13.0,63,0.00,,---,0.00,VWS V13.00,2013-10-27 04:41:00,
2013-10-27 00:46:00,46.0,34.1,29.85,SW,229,2.0,13.0,63,0.00,,---,0.00,VWS V13.00,2013-10-27 04:46:00,
2013-10-27 00:51:00,46.0,34.1,29.85,SW,225,4.0,13.0,63,0.00,,---,0.00,VWS V13.00,2013-10-27 04:51:00,
2013-10-27 00:56:00,45.9,34.0,29.85,SW,223,1.0,13.0,63,0.00,,---,0.00,VWS V13.00,2013-10-27 04:56:00,
2013-10-27 01:01:00,45.8,34.3,29.85,SW,221,2.0,13.0,64,0.00,,---,0.00,VWS V13.00,2013-10-27 05:01:00,
2013-10-27 01:06:00,45.8,34.3,29.85,SW,214,1.0,4.0,64,0.00,,---,0.00,VWS V13.00,2013-10-27 05:06:00,
2013-10-27 01:11:00,45.8,34.3,29.85,SW,219,0.0,7.0,64,0.00,,---,0.00,VWS V13.00,2013-10-27 05:11:00,
2013-10-27 01:16:00,45.7,34.2,29.85,SW,215,2.0,7.0,64,0.00,,---,0.00,VWS V13.00,2013-10-27 05:16:00,
2013-10-27 01:21:00,45.6,34.1,29.85,SW,214,3.0,7.0,64,0.00,,---,0.00,VWS V13.00,2013-10-27 05:21:00,
2013-10-27 01:26:00,45.7,34.2,29.85,SSW,209,2.0,7.0,64,0.00,,---,0.00,VWS V13.00,2013-10-27 05:26:00,
2013-10-27 01:31:00,45.6,34.1,29.85,SW,217,1.0,7.0,64,0.00,,---,0.00,VWS V13.00,2013-10-27 05:31:00,
2013-10-27 01:36:00,45.6,34.1,29.84,SW,223,0.0,0.0,64,0.00,,---,0.00,VWS V13.00,2013-10-27 05:36:00,
2013-10-27 01:41:00,45.5,34.4,29.84,SW,218,2.0,3.0,65,0.00,,---,0.00,VWS V13.00,2013-10-27 05:41:00,
2013-10-27 01:46:00,45.4,34.3,29.85,SW,217,2.0,5.0,65,0.00,,---,0.00,VWS V13.00,2013-10-27 05:46:00,
2013-10-27 01:51:00,45.3,34.2,29.85,SW,226,1.0,5.0,65,0.00,,---,0.00,VWS V13.00,2013-10-27 05:51:00,
2013-10-27 01:56:00,45.2,34.2,29.84,SW,227,0.0,5.0,65,0.00,,---,0.00,VWS V13.00,2013-10-27 05:56:00,
2013-10-27 02:01:00,45.3,34.2,29.84,South,182,0.0,5.0,65,0.00,,---,0.00,VWS V13.00,2013-10-27 06:01:00,
2013-10-27 02:06:00,45.3,34.2,29.84,SSE,153,1.0,1.0,65,0.00,,---,0.00,VWS V13.00,2013-10-27 06:06:00,
2013-10-27 02:11:00,45.3,34.2,29.84,SSE,166,2.0,4.0,65,0.00,,---,0.00,VWS V13.00,2013-10-27 06:11:00,
2013-10-27 02:16:00,45.3,34.2,29.83,South,182,1.0,4.0,65,0.00,,---,0.00,VWS V13.00,2013-10-27 06:16:00,
2013-10-27 02:21:00,45.2,34.2,29.83,South,169,4.0,4.0,65,0.00,,---,0.00,VWS V13.00,2013-10-27 06:21:00,
2013-10-27 02:26:00,45.2,34.2,29.84,SE,139,0.0,9.0,65,0.00,,---,0.00,VWS V13.00,2013-10-27 06:26:00,
2013-10-27 02:31:00,45.2,34.2,29.83,South,173,1.0,9.0,65,0.00,,---,0.00,VWS V13.00,2013-10-27 06:31:00,
2013-10-27 02:36:00,45.2,34.2,29.83,South,187,2.0,3.0,65,0.00,,---,0.00,VWS V13.00,2013-10-27 06:36:00,
2013-10-27 02:41:00,45.1,34.4,29.83,SSW,203,1.0,5.0,66,0.00,,---,0.00,VWS V13.00,2013-10-27 06:41:00,
2013-10-27 02:46:00,45.1,34.4,29.83,SSW,194,0.0,5.0,66,0.00,,---,0.00,VWS V13.00,2013-10-27 06:46:00,
2013-10-27 02:51:00,45.0,34.3,29.82,South,189,0.0,5.0,66,0.00,,---,0.00,VWS V13.00,2013-10-27 06:51:00,
2013-10-27 02:56:00,45.0,34.3,29.82,South,173,0.0,5.0,66,0.00,,---,0.00,VWS V13.00,2013-10-27 06:56:00,
2013-10-27 03:01:00,45.0,34.3,29.83,SE,146,0.0,5.0,66,0.00,,---,0.00,VWS V13.00,2013-10-27 07:01:00,
2013-10-27 03:06:00,45.0,34.3,29.82,South,172,1.0,1.0,66,0.00,,---,0.00,VWS V13.00,2013-10-27 07:06:00,
2013-10-27 03:11:00,44.9,34.2,29.82,SSE,149,0.0,3.0,66,0.00,,---,0.00,VWS V13.00,2013-10-27 07:11:00,
2013-10-27 03:16:00,44.7,34.8,29.82,SSE,149,0.0,3.0,68,0.00,,---,0.00,VWS V13.00,2013-10-27 07:16:00,
2013-10-27 03:21:00,44.6,34.7,29.82,SSE,150,0.0,3.0,68,0.00,,---,0.00,VWS V13.00,2013-10-27 07:21:00,
2013-10-27 03:26:00,44.4,34.5,29.82,SE,145,0.0,3.0,68,0.00,,---,0.00,VWS V13.00,2013-10-27 07:26:00,
2013-10-27 03:31:00,44.3,34.4,29.82,SE,146,0.0,3.0,68,0.00,,---,0.00,VWS V13.00,2013-10-27 07:31:00,
2013-10-27 03:36:00,44.3,34.4,29.81,SE,142,2.0,4.0,68,0.00,,---,0.00,VWS V13.00,2013-10-27 07:36:00,
2013-10-27 03:41:00,44.3,34.8,29.81,South,173,0.0,4.0,69,0.00,,---,0.00,VWS V13.00,2013-10-27 07:41:00,
2013-10-27 03:46:00,44.3,34.4,29.81,SSE,153,3.0,4.0,68,0.00,,---,0.00,VWS V13.00,2013-10-27 07:46:00,
2013-10-27 03:50:00,44.3,34.4,29.81,SSE,152,1.0,4.0,68,0.00,,---,0.00,VWS V13.00,2013-10-27 07:50:00,
2013-10-27 03:55:00,44.2,34.7,29.81,ESE,117,1.0,4.0,69,0.00,,---,0.00,VWS V13.00,2013-10-27 07:55:00,
2013-10-27 04:00:00,44.2,34.7,29.80,SSE,150,1.0,4.0,69,0.00,,---,0.00,VWS V13.00,2013-10-27 08:00:00,
2013-10-27 04:05:00,44.2,34.7,29.80,SE,138,0.0,1.0,69,0.00,,---,0.00,VWS V13.00,2013-10-27 08:05:00,
2013-10-27 04:10:00,44.2,34.7,29.80,SSE,157,0.0,4.0,69,0.00,,---,0.00,VWS V13.00,2013-10-27 08:10:00,
2013-10-27 04:15:00,44.1,34.6,29.80,SSE,161,1.0,4.0,69,0.00,,---,0.00,VWS V13.00,2013-10-27 08:15:00,
2013-10-27 04:20:00,44.1,34.6,29.80,South,171,2.0,5.0,69,0.00,,---,0.00,VWS V13.00,2013-10-27 08:20:00,
2013-10-27 04:25:00,44.1,34.6,29.80,SSE,168,0.0,5.0,69,0.00,,---,0.00,VWS V13.00,2013-10-27 08:25:00,
2013-10-27 04:30:00,44.1,34.6,29.80,South,176,3.0,5.0,69,0.00,,---,0.00,VWS V13.00,2013-10-27 08:30:00,
2013-10-27 04:35:00,44.1,35.0,29.79,SSE,161,0.0,0.0,70,0.00,,---,0.00,VWS V13.00,2013-10-27 08:35:00,
2013-10-27 04:40:00,44.0,34.9,29.80,SSE,159,1.0,3.0,70,0.00,,---,0.00,VWS V13.00,2013-10-27 08:40:00,
2013-10-27 04:45:00,43.9,34.8,29.79,SSE,161,0.0,3.0,70,0.00,,---,0.00,VWS V13.00,2013-10-27 08:45:00,
2013-10-27 04:50:00,43.8,35.0,29.80,SSE,152,0.0,3.0,71,0.00,,---,0.00,VWS V13.00,2013-10-27 08:50:00,
2013-10-27 04:55:00,43.6,34.8,29.79,SSE,152,0.0,3.0,71,0.00,,---,0.00,VWS V13.00,2013-10-27 08:55:00,
2013-10-27 05:00:00,43.5,34.7,29.80,SSE,149,1.0,3.0,71,0.00,,---,0.00,VWS V13.00,2013-10-27 09:00:00,
2013-10-27 05:05:00,43.4,35.0,29.80,ESE,120,2.0,3.0,72,0.00,,---,0.00,VWS V13.00,2013-10-27 09:05:00,
2013-10-27 05:10:00,43.4,35.0,29.80,SSE,165,3.0,3.0,72,0.00,,---,0.00,VWS V13.00,2013-10-27 09:10:00,
2013-10-27 05:15:00,43.4,35.0,29.80,SSE,160,2.0,3.0,72,0.00,,---,0.00,VWS V13.00,2013-10-27 09:15:00,
2013-10-27 05:20:00,43.4,35.0,29.80,SSE,160,0.0,3.0,72,0.00,,---,0.00,VWS V13.00,2013-10-27 09:20:00,
2013-10-27 05:25:00,43.4,35.0,29.80,South,188,0.0,5.0,72,0.00,,---,0.00,VWS V13.00,2013-10-27 09:25:00,
2013-10-27 05:30:00,43.4,35.0,29.80,South,188,0.0,5.0,72,0.00,,---,0.00,VWS V13.00,2013-10-27 09:30:00,
2013-10-27 05:35:00,43.4,35.0,29.80,South,188,0.0,5.0,72,0.00,,---,0.00,VWS V13.00,2013-10-27 09:35:00,
2013-10-27 05:40:00,43.3,35.2,29.81,South,188,0.0,2.0,73,0.00,,---,0.00,VWS V13.00,2013-10-27 09:40:00,
2013-10-27 05:45:00,43.2,35.1,29.81,South,188,0.0,2.0,73,0.00,,---,0.00,VWS V13.00,2013-10-27 09:45:00,
2013-10-27 05:50:00,43.2,35.1,29.81,SW,222,0.0,4.0,73,0.00,,---,0.00,VWS V13.00,2013-10-27 09:50:00,
2013-10-27 05:55:00,43.3,34.9,29.81,SW,222,0.0,4.0,72,0.00,,---,0.00,VWS V13.00,2013-10-27 09:55:00,
2013-10-27 06:00:00,43.4,35.0,29.82,SW,216,2.0,4.0,72,0.00,,---,0.00,VWS V13.00,2013-10-27 10:00:00,
2013-10-27 06:05:00,43.4,35.0,29.82,SW,216,0.0,4.0,72,0.00,,---,0.00,VWS V13.00,2013-10-27 10:05:00,
2013-10-27 06:10:00,43.5,35.1,29.82,SW,216,0.0,2.0,72,0.00,,---,0.00,VWS V13.00,2013-10-27 10:10:00,
2013-10-27 06:15:00,43.6,34.8,29.82,SW,219,2.0,4.0,71,0.00,,---,0.00,VWS V13.00,2013-10-27 10:15:00,
2013-10-27 06:20:00,43.8,34.7,29.82,SSW,213,0.0,4.0,70,0.00,,---,0.00,VWS V13.00,2013-10-27 10:20:00,
2013-10-27 06:25:00,43.9,34.8,29.82,SSW,213,0.0,4.0,70,0.00,,---,0.00,VWS V13.00,2013-10-27 10:25:00,
2013-10-27 06:30:00,43.8,34.7,29.82,SSW,213,0.0,4.0,70,0.00,,---,0.00,VWS V13.00,2013-10-27 10:30:00,
2013-10-27 06:35:00,43.8,34.7,29.82,SSW,213,0.0,4.0,70,0.00,,---,0.00,VWS V13.00,2013-10-27 10:35:00,
2013-10-27 06:40:00,43.8,34.7,29.82,SSW,213,0.0,1.0,70,0.00,,---,0.00,VWS V13.00,2013-10-27 10:40:00,
2013-10-27 06:45:00,43.7,34.6,29.82,SSW,213,0.0,2.0,70,0.00,,---,0.00,VWS V13.00,2013-10-27 10:45:00,
2013-10-27 06:50:00,43.7,34.9,29.82,SSW,213,0.0,2.0,71,0.00,,---,0.00,VWS V13.00,2013-10-27 10:50:00,
2013-10-27 06:55:00,43.5,34.7,29.82,SSW,213,1.0,2.0,71,0.00,,---,0.00,VWS V13.00,2013-10-27 10:55:00,
2013-10-27 07:00:00,43.5,35.1,29.82,SW,229,0.0,4.0,72,0.00,,---,0.00,VWS V13.00,2013-10-27 11:00:00,
2013-10-27 07:05:00,43.4,34.6,29.82,SW,234,0.0,4.0,71,0.00,,---,0.00,VWS V13.00,2013-10-27 11:05:00,
2013-10-27 07:10:00,43.5,34.4,29.82,WSW,237,1.0,3.0,70,0.00,,---,0.00,VWS V13.00,2013-10-27 11:10:00,
2013-10-27 07:15:00,43.6,34.8,29.83,WSW,237,1.0,3.0,71,0.00,,---,0.00,VWS V13.00,2013-10-27 11:15:00,
2013-10-27 07:20:00,43.4,34.6,29.83,WSW,237,1.0,3.0,71,0.00,,---,0.00,VWS V13.00,2013-10-27 11:20:00,
2013-10-27 07:25:00,43.3,34.9,29.83,WSW,237,0.0,3.0,72,0.00,,---,0.00,VWS V13.00,2013-10-27 11:25:00,
2013-10-27 07:30:00,43.0,35.0,29.84,WSW,237,1.0,3.0,73,0.00,,---,0.00,VWS V13.00,2013-10-27 11:30:00,
2013-10-27 07:35:00,42.7,35.0,29.84,WSW,237,0.0,3.0,74,0.00,,---,0.00,VWS V13.00,2013-10-27 11:35:00,
2013-10-27 07:40:00,42.6,34.9,29.84,WSW,237,0.0,2.0,74,0.00,,---,0.00,VWS V13.00,2013-10-27 11:40:00,
2013-10-27 07:45:00,42.4,35.0,29.84,WSW,237,0.0,3.0,75,0.00,,---,0.00,VWS V13.00,2013-10-27 11:45:00,
2013-10-27 07:50:00,42.3,35.0,29.84,WSW,237,1.0,3.0,75,0.00,,---,0.00,VWS V13.00,2013-10-27 11:50:00,
2013-10-27 07:55:00,42.2,34.5,29.84,WSW,243,0.0,3.0,74,0.00,,---,0.00,VWS V13.00,2013-10-27 11:55:00,
2013-10-27 08:00:00,42.2,34.9,29.84,WSW,243,0.0,3.0,75,0.00,,---,0.00,VWS V13.00,2013-10-27 12:00:00,
2013-10-27 08:05:00,42.2,34.5,29.84,WSW,243,1.0,3.0,74,0.00,,---,0.00,VWS V13.00,2013-10-27 12:05:00,
2013-10-27 08:10:00,42.4,35.0,29.84,WSW,243,1.0,2.0,75,0.00,,---,0.00,VWS V13.00,2013-10-27 12:10:00,
2013-10-27 08:15:00,42.7,35.3,29.84,WSW,244,2.0,3.0,75,0.00,,---,0.00,VWS V13.00,2013-10-27 12:15:00,
2013-10-27 08:20:00,43.2,35.5,29.84,SW,226,1.0,3.0,74,0.00,,---,0.00,VWS V13.00,2013-10-27 12:20:00,
2013-10-27 08:25:00,43.4,35.3,29.84,SW,226,0.0,3.0,73,0.00,,---,0.00,VWS V13.00,2013-10-27 12:25:00,
2013-10-27 08:30:00,43.3,35.6,29.85,SW,226,0.0,3.0,74,0.00,,---,0.00,VWS V13.00,2013-10-27 12:30:00,
2013-10-27 08:31:00,43.3,35.6,29.85,SW,226,1.0,3.0,74,0.00,,---,0.00,VWS V13.00,2013-10-27 12:31:00,
2013-10-27 08:36:00,43.2,35.5,29.85,SW,226,0.0,1.0,74,0.00,,---,0.00,VWS V13.00,2013-10-27 12:36:00,
2013-10-27 08:41:00,43.2,35.5,29.86,SW,226,0.0,1.0,74,0.00,,---,0.00,VWS V13.00,2013-10-27 12:41:00,
2013-10-27 08:46:00,43.4,36.0,29.86,SW,226,1.0,2.0,75,0.00,,---,0.00,VWS V13.00,2013-10-27 12:46:00,
2013-10-27 08:51:00,44.0,36.3,29.86,SW,226,0.0,2.0,74,0.00,,---,0.00,VWS V13.00,2013-10-27 12:51:00,
2013-10-27 08:56:00,44.7,36.2,29.86,SW,226,1.0,3.0,72,0.00,,---,0.00,VWS V13.00,2013-10-27 12:56:00,
2013-10-27 09:01:00,45.2,36.7,29.86,West,279,2.0,4.0,72,0.00,,---,0.00,VWS V13.00,2013-10-27 13:01:00,
2013-10-27 09:06:00,45.6,36.4,29.86,WSW,247,3.0,3.0,70,0.00,,---,0.00,VWS V13.00,2013-10-27 13:06:00,
2013-10-27 09:11:00,45.9,36.3,29.86,WSW,241,3.0,10.0,69,0.00,,---,0.00,VWS V13.00,2013-10-27 13:11:00,
2013-10-27 09:16:00,45.8,36.2,29.86,SW,229,3.0,10.0,69,0.00,,---,0.00,VWS V13.00,2013-10-27 13:16:00,
2013-10-27 09:21:00,45.7,36.1,29.86,WSW,241,2.0,11.0,69,0.00,,---,0.00,VWS V13.00,2013-10-27 13:21:00,
2013-10-27 09:26:00,45.7,36.1,29.86,West,271,5.0,11.0,69,0.00,,---,0.00,VWS V13.00,2013-10-27 13:26:00,
2013-10-27 09:31:00,45.7,36.5,29.86,SW,215,3.0,11.0,70,0.00,,---,0.00,VWS V13.00,2013-10-27 13:31:00,
2013-10-27 09:36:00,46.1,36.5,29.86,WSW,251,2.0,3.0,69,0.00,,---,0.00,VWS V13.00,2013-10-27 13:36:00,
2013-10-27 09:40:00,46.1,36.5,29.86,WSW,257,3.0,6.0,69,0.00,,---,0.00,VWS V13.00,2013-10-27 13:40:00,
2013-10-27 09:45:00,46.1,36.5,29.86,West,261,3.0,7.0,69,0.00,,---,0.00,VWS V13.00,2013-10-27 13:45:00,
2013-10-27 09:50:00,46.7,36.7,29.86,SW,225,2.0,9.0,68,0.00,,---,0.00,VWS V13.00,2013-10-27 13:50:00,
2013-10-27 09:55:00,47.6,37.6,29.86,West,275,2.0,9.0,68,0.00,,---,0.00,VWS V13.00,2013-10-27 13:55:00,
2013-10-27 10:00:00,48.0,37.2,29.86,WNW,286,1.0,9.0,66,0.00,,---,0.00,VWS V13.00,2013-10-27 14:00:00,
2013-10-27 10:05:00,47.9,37.1,29.87,WNW,296,3.0,3.0,66,0.00,,---,0.00,VWS V13.00,2013-10-27 14:05:00,
2013-10-27 10:10:00,47.6,36.4,29.87,WSW,254,0.0,9.0,65,0.00,,---,0.00,VWS V13.00,2013-10-27 14:10:00,
2013-10-27 10:15:00,47.4,36.6,29.87,SW,231,1.0,9.0,66,0.00,,---,0.00,VWS V13.00,2013-10-27 14:15:00,
2013-10-27 10:20:00,47.4,36.6,29.87,SW,225,0.0,9.0,66,0.00,,---,0.00,VWS V13.00,2013-10-27 14:20:00,
2013-10-27 10:25:00,47.4,36.6,29.87,West,279,0.0,9.0,66,0.00,,---,0.00,VWS V13.00,2013-10-27 14:25:00,
2013-10-27 10:30:00,47.3,36.5,29.87,SW,228,4.0,9.0,66,0.00,,---,0.00,VWS V13.00,2013-10-27 14:30:00,
2013-10-27 10:35:00,47.4,36.2,29.87,WSW,246,3.0,9.0,65,0.00,,---,0.00,VWS V13.00,2013-10-27 14:35:00,
2013-10-27 10:40:00,47.5,36.7,29.87,WNW,297,9.0,9.0,66,0.00,,---,0.00,VWS V13.00,2013-10-27 14:40:00,
2013-10-27 10:45:00,47.8,37.0,29.87,WNW,284,2.0,12.0,66,0.00,,---,0.00,VWS V13.00,2013-10-27 14:45:00,
2013-10-27 10:50:00,48.5,36.9,29.87,WNW,286,1.0,12.0,64,0.00,,---,0.00,VWS V13.00,2013-10-27 14:50:00,
2013-10-27 10:55:00,48.9,36.9,29.88,West,268,1.0,12.0,63,0.00,,---,0.00,VWS V13.00,2013-10-27 14:55:00,
2013-10-27 11:00:00,48.9,36.5,29.88,WSW,254,3.0,12.0,62,0.00,,---,0.00,VWS V13.00,2013-10-27 15:00:00,
2013-10-27 11:05:00,49.2,37.2,29.88,West,259,4.0,15.0,63,0.00,,---,0.00,VWS V13.00,2013-10-27 15:05:00,
2013-10-27 11:10:00,49.2,36.3,29.88,WSW,254,6.0,12.0,61,0.00,,---,0.00,VWS V13.00,2013-10-27 15:10:00,
2013-10-27 11:15:00,49.1,36.2,29.88,WSW,250,3.0,12.0,61,0.00,,---,0.00,VWS V13.00,2013-10-27 15:15:00,
2013-10-27 11:20:00,49.1,37.1,29.88,SW,234,8.0,12.0,63,0.00,,---,0.00,VWS V13.00,2013-10-27 15:20:00,
2013-10-27 11:25:00,49.1,36.7,29.88,WNW,291,0.0,12.0,62,0.00,,---,0.00,VWS V13.00,2013-10-27 15:25:00,
2013-10-27 11:30:00,49.6,37.1,29.88,WSW,258,2.0,12.0,62,0.00,,---,0.00,VWS V13.00,2013-10-27 15:30:00,
2013-10-27 11:35:00,50.9,38.0,29.88,WSW,257,1.0,12.0,61,0.00,,---,0.00,VWS V13.00,2013-10-27 15:35:00,
2013-10-27 11:40:00,50.9,37.1,29.88,WNW,286,4.0,6.0,59,0.00,,---,0.00,VWS V13.00,2013-10-27 15:40:00,
2013-10-27 11:45:00,50.8,37.0,29.87,WSW,238,4.0,7.0,59,0.00,,---,0.00,VWS V13.00,2013-10-27 15:45:00,
2013-10-27 11:50:00,50.2,36.9,29.87,West,259,1.0,7.0,60,0.00,,---,0.00,VWS V13.00,2013-10-27 15:50:00,
2013-10-27 11:55:00,50.2,36.4,29.87,West,269,1.0,9.0,59,0.00,,---,0.00,VWS V13.00,2013-10-27 15:55:00,
2013-10-27 12:00:00,50.6,36.8,29.87,WSW,248,0.0,9.0,59,0.00,,---,0.00,VWS V13.00,2013-10-27 16:00:00,
2013-10-27 12:05:00,50.5,36.7,29.87,West,280,3.0,9.0,59,0.00,,---,0.00,VWS V13.00,2013-10-27 16:05:00,
2013-10-27 12:10:00,50.3,36.5,29.87,West,267,0.0,5.0,59,0.00,,---,0.00,VWS V13.00,2013-10-27 16:10:00,
2013-10-27 12:15:00,49.8,36.1,29.87,SW,222,2.0,7.0,59,0.00,,---,0.00,VWS V13.00,2013-10-27 16:15:00,
2013-10-27 12:20:00,49.1,35.8,29.87,WSW,238,5.0,13.0,60,0.00,,---,0.00,VWS V13.00,2013-10-27 16:20:00,
2013-10-27 12:25:00,48.6,35.8,29.87,West,281,5.0,13.0,61,0.00,,---,0.00,VWS V13.00,2013-10-27 16:25:00,
2013-10-27 12:30:00,48.7,35.9,29.87,West,280,4.0,13.0,61,0.00,,---,0.00,VWS V13.00,2013-10-27 16:30:00,
2013-10-27 12:35:00,49.6,36.7,29.86,WSW,240,9.0,15.0,61,0.00,,---,0.00,VWS V13.00,2013-10-27 16:35:00,
2013-10-27 12:40:00,51.0,37.2,29.86,West,263,1.0,7.0,59,0.00,,---,0.00,VWS V13.00,2013-10-27 16:40:00,
2013-10-27 12:45:00,51.4,35.8,29.86,West,259,2.0,13.0,55,0.00,,---,0.00,VWS V13.00,2013-10-27 16:45:00,
2013-10-27 12:50:00,51.4,36.2,29.86,West,263,3.0,13.0,56,0.00,,---,0.00,VWS V13.00,2013-10-27 16:50:00,
2013-10-27 12:55:00,51.1,35.5,29.86,West,271,4.0,13.0,55,0.00,,---,0.00,VWS V13.00,2013-10-27 16:55:00,
2013-10-27 13:00:00,50.7,36.0,29.86,West,279,4.0,13.0,57,0.00,,---,0.00,VWS V13.00,2013-10-27 17:00:00,
2013-10-27 13:05:00,51.1,36.0,29.86,WSW,244,2.0,13.0,56,0.00,,---,0.00,VWS V13.00,2013-10-27 17:05:00,
2013-10-27 13:10:00,51.3,36.2,29.86,West,276,3.0,6.0,56,0.00,,---,0.00,VWS V13.00,2013-10-27 17:10:00,
2013-10-27 13:15:00,51.5,35.9,29.86,WSW,252,3.0,6.0,55,0.00,,---,0.00,VWS V13.00,2013-10-27 17:15:00,
2013-10-27 13:20:00,52.0,35.4,29.85,WSW,246,4.0,10.0,53,0.00,,---,0.00,VWS V13.00,2013-10-27 17:20:00,
2013-10-27 13:25:00,52.6,35.5,29.86,West,261,4.0,17.0,52,0.00,,---,0.00,VWS V13.00,2013-10-27 17:25:00,
2013-10-27 13:30:00,52.4,36.3,29.86,SSW,213,4.0,17.0,54,0.00,,---,0.00,VWS V13.00,2013-10-27 17:30:00,
2013-10-27 13:35:00,51.5,35.4,29.86,West,267,3.0,17.0,54,0.00,,---,0.00,VWS V13.00,2013-10-27 17:35:00,
2013-10-27 13:40:00,50.8,35.2,29.86,West,263,2.0,9.0,55,0.00,,---,0.00,VWS V13.00,2013-10-27 17:40:00,
2013-10-27 13:45:00,50.4,35.8,29.86,West,279,4.0,11.0,57,0.00,,---,0.00,VWS V13.00,2013-10-27 17:45:00,
2013-10-27 13:50:00,50.2,35.6,29.86,West,277,1.0,11.0,57,0.00,,---,0.00,VWS V13.00,2013-10-27 17:50:00,
2013-10-27 13:55:00,50.1,35.5,29.86,West,271,5.0,11.0,57,0.00,,---,0.00,VWS V13.00,2013-10-27 17:55:00,
2013-10-27 14:00:00,50.1,35.9,29.86,WSW,254,3.0,11.0,58,0.00,,---,0.00,VWS V13.00,2013-10-27 18:00:00,
2013-10-27 14:05:00,50.4,34.9,29.86,WSW,238,5.0,12.0,55,0.00,,---,0.00,VWS V13.00,2013-10-27 18:05:00,
2013-10-27 14:10:00,50.1,34.6,29.86,WSW,245,0.0,11.0,55,0.00,,---,0.00,VWS V13.00,2013-10-27 18:10:00,
2013-10-27 14:15:00,50.0,34.9,29.86,West,261,3.0,11.0,56,0.00,,---,0.00,VWS V13.00,2013-10-27 18:15:00,
2013-10-27 14:20:00,50.8,35.2,29.85,West,263,1.0,11.0,55,0.00,,---,0.00,VWS V13.00,2013-10-27 18:20:00,
2013-10-27 14:25:00,51.9,33.9,29.85,WNW,285,5.0,11.0,50,0.00,,---,0.00,VWS V13.00,2013-10-27 18:25:00,
2013-10-27 14:30:00,52.7,34.6,29.85,West,277,6.0,11.0,50,0.00,,---,0.00,VWS V13.00,2013-10-27 18:30:00,
2013-10-27 14:35:00,53.3,34.1,29.85,West,279,3.0,11.0,48,0.00,,---,0.00,VWS V13.00,2013-10-27 18:35:00,
2013-10-27 14:40:00,53.4,33.7,29.85,NW,307,5.0,11.0,47,0.00,,---,0.00,VWS V13.00,2013-10-27 18:40:00,
2013-10-27 14:45:00,53.0,33.3,29.85,WSW,248,0.0,11.0,47,0.00,,---,0.00,VWS V13.00,2013-10-27 18:45:00,
2013-10-27 14:50:00,52.5,32.3,29.85,WSW,254,1.0,11.0,46,0.00,,---,0.00,VWS V13.00,2013-10-27 18:50:00,
2013-10-27 14:55:00,52.0,32.4,29.86,WNW,298,3.0,11.0,47,0.00,,---,0.00,VWS V13.00,2013-10-27 18:55:00,
2013-10-27 15:00:00,51.8,32.8,29.86,WNW,297,6.0,11.0,48,0.00,,---,0.00,VWS V13.00,2013-10-27 19:00:00,
2013-10-27 15:05:00,51.5,32.5,29.86,West,268,2.0,11.0,48,0.00,,---,0.00,VWS V13.00,2013-10-27 19:05:00,
2013-10-27 15:10:00,51.3,31.8,29.86,West,264,3.0,10.0,47,0.00,,---,0.00,VWS V13.00,2013-10-27 19:10:00,
2013-10-27 15:15:00,51.1,31.6,29.87,West,279,2.0,10.0,47,0.00,,---,0.00,VWS V13.00,2013-10-27 19:15:00,
2013-10-27 15:20:00,51.0,31.5,29.87,WSW,250,3.0,14.0,47,0.00,,---,0.00,VWS V13.00,2013-10-27 19:20:00,
2013-10-27 15:25:00,50.9,31.4,29.87,West,277,7.0,17.0,47,0.00,,---,0.00,VWS V13.00,2013-10-27 19:25:00,
2013-10-27 15:30:00,50.9,32.4,29.87,WSW,238,6.0,17.0,49,0.00,,---,0.00,VWS V13.00,2013-10-27 19:30:00,
2013-10-27 15:35:00,50.8,32.3,29.87,West,277,5.0,17.0,49,0.00,,---,0.00,VWS V13.00,2013-10-27 19:35:00,
2013-10-27 15:40:00,50.5,32.1,29.87,West,260,4.0,11.0,49,0.00,,---,0.00,VWS V13.00,2013-10-27 19:40:00,
2013-10-27 15:45:00,50.2,32.3,29.88,SW,225,3.0,11.0,50,0.00,,---,0.00,VWS V13.00,2013-10-27 19:45:00,
2013-10-27 15:50:00,50.2,32.8,29.88,WSW,250,5.0,11.0,51,0.00,,---,0.00,VWS V13.00,2013-10-27 19:50:00,
2013-10-27 15:55:00,50.1,32.7,29.88,West,281,1.0,12.0,51,0.00,,---,0.00,VWS V13.00,2013-10-27 19:55:00,
2013-10-27 16:00:00,50.1,32.7,29.89,WSW,257,3.0,12.0,51,0.00,,---,0.00,VWS V13.00,2013-10-27 20:00:00,
2013-10-27 16:05:00,50.1,32.7,29.89,WNW,286,3.0,12.0,51,0.00,,---,0.00,VWS V13.00,2013-10-27 20:05:00,
2013-10-27 16:10:00,50.0,32.6,29.89,NW,314,6.0,9.0,51,0.00,,---,0.00,VWS V13.00,2013-10-27 20:10:00,
2013-10-27 16:15:00,49.9,33.0,29.89,WSW,254,3.0,11.0,52,0.00,,---,0.00,VWS V13.00,2013-10-27 20:15:00,
2013-10-27 16:20:00,49.7,31.8,29.89,WNW,292,9.0,15.0,50,0.00,,---,0.00,VWS V13.00,2013-10-27 20:20:00,
2013-10-27 16:25:00,49.5,32.1,29.90,West,271,6.0,15.0,51,0.00,,---,0.00,VWS V13.00,2013-10-27 20:25:00,
2013-10-27 16:30:00,49.2,32.8,29.90,West,271,0.0,15.0,53,0.00,,---,0.00,VWS V13.00,2013-10-27 20:30:00,
2013-10-27 16:35:00,49.1,32.7,29.90,NW,314,5.0,15.0,53,0.00,,---,0.00,VWS V13.00,2013-10-27 20:35:00,
2013-10-27 16:40:00,48.9,32.1,29.90,WNW,285,3.0,12.0,52,0.00,,---,0.00,VWS V13.00,2013-10-27 20:40:00,
2013-10-27 16:45:00,48.9,32.1,29.90,West,272,2.0,12.0,52,0.00,,---,0.00,VWS V13.00,2013-10-27 20:45:00,
2013-10-27 16:50:00,49.1,32.2,29.90,West,277,5.0,12.0,52,0.00,,---,0.00,VWS V13.00,2013-10-27 20:50:00,
2013-10-27 16:55:00,49.0,32.2,29.90,WSW,252,3.0,12.0,52,0.00,,---,0.00,VWS V13.00,2013-10-27 20:55:00,
2013-10-27 17:00:00,48.7,31.9,29.91,West,263,3.0,12.0,52,0.00,,---,0.00,VWS V13.00,2013-10-27 21:00:00,
2013-10-27 17:05:00,48.4,32.1,29.91,West,277,2.0,12.0,53,0.00,,---,0.00,VWS V13.00,2013-10-27 21:05:00,
2013-10-27 17:10:00,48.2,32.3,29.92,WNW,282,0.0,7.0,54,0.00,,---,0.00,VWS V13.00,2013-10-27 21:10:00,
2013-10-27 17:15:00,48.0,32.2,29.92,WSW,250,1.0,7.0,54,0.00,,---,0.00,VWS V13.00,2013-10-27 21:15:00,
2013-10-27 17:20:00,47.7,31.9,29.92,WSW,250,1.0,7.0,54,0.00,,---,0.00,VWS V13.00,2013-10-27 21:20:00,
2013-10-27 17:25:00,47.3,31.5,29.93,West,260,1.0,7.0,54,0.00,,---,0.00,VWS V13.00,2013-10-27 21:25:00,
2013-10-27 17:30:00,47.2,30.0,29.93,WNW,287,1.0,14.0,51,0.00,,---,0.00,VWS V13.00,2013-10-27 21:30:00,
2013-10-27 17:35:00,47.0,29.8,29.93,WNW,284,2.0,14.0,51,0.00,,---,0.00,VWS V13.00,2013-10-27 21:35:00,
2013-10-27 17:40:00,46.8,29.6,29.94,WSW,252,3.0,6.0,51,0.00,,---,0.00,VWS V13.00,2013-10-27 21:40:00,
2013-10-27 17:45:00,46.5,29.8,29.94,WSW,250,2.0,9.0,52,0.00,,---,0.00,VWS V13.00,2013-10-27 21:45:00,
2013-10-27 17:50:00,46.2,29.6,29.94,WNW,288,6.0,9.0,52,0.00,,---,0.00,VWS V13.00,2013-10-27 21:50:00,
2013-10-27 17:55:00,46.0,29.4,29.94,WNW,290,1.0,9.0,52,0.00,,---,0.00,VWS V13.00,2013-10-27 21:55:00,
2013-10-27 18:00:00,45.7,29.1,29.95,WNW,283,3.0,11.0,52,0.00,,---,0.00,VWS V13.00,2013-10-27 22:00:00,
2013-10-27 18:05:00,45.6,29.0,29.95,WNW,297,1.0,11.0,52,0.00,,---,0.00,VWS V13.00,2013-10-27 22:05:00,
2013-10-27 18:10:00,45.5,28.4,29.96,WNW,297,3.0,9.0,51,0.00,,---,0.00,VWS V13.00,2013-10-27 22:10:00,
2013-10-27 18:15:00,45.4,28.8,29.96,WNW,286,3.0,9.0,52,0.00,,---,0.00,VWS V13.00,2013-10-27 22:15:00,
2013-10-27 18:20:00,45.2,29.1,29.96,NW,313,2.0,9.0,53,0.00,,---,0.00,VWS V13.00,2013-10-27 22:20:00,
2013-10-27 18:25:00,45.0,28.5,29.97,NW,316,0.0,9.0,52,0.00,,---,0.00,VWS V13.00,2013-10-27 22:25:00,
2013-10-27 18:30:00,44.8,28.7,29.97,NW,316,0.0,9.0,53,0.00,,---,0.00,VWS V13.00,2013-10-27 22:30:00,
2013-10-27 18:35:00,44.6,28.5,29.97,NW,315,0.0,9.0,53,0.00,,---,0.00,VWS V13.00,2013-10-27 22:35:00,
2013-10-27 18:39:00,44.5,28.9,29.98,NW,315,0.0,1.0,54,0.00,,---,0.00,VWS V13.00,2013-10-27 22:39:00,
2013-10-27 18:44:00,44.2,29.1,29.98,NW,316,0.0,2.0,55,0.00,,---,0.00,VWS V13.00,2013-10-27 22:44:00,
2013-10-27 18:49:00,43.9,28.8,29.98,NW,316,1.0,3.0,55,0.00,,---,0.00,VWS V13.00,2013-10-27 22:49:00,
2013-10-27 18:54:00,43.8,28.7,29.98,NW,316,0.0,3.0,55,0.00,,---,0.00,VWS V13.00,2013-10-27 22:54:00,
2013-10-27 18:59:00,43.6,29.4,29.98,NW,316,0.0,3.0,57,0.00,,---,0.00,VWS V13.00,2013-10-27 22:59:00,
2013-10-27 19:04:00,43.3,29.1,29.99,NW,316,0.0,3.0,57,0.00,,---,0.00,VWS V13.00,2013-10-27 23:04:00,
2013-10-27 19:09:00,43.0,28.8,29.99,NW,316,0.0,0.0,57,0.00,,---,0.00,VWS V13.00,2013-10-27 23:09:00,
2013-10-27 19:14:00,42.7,29.8,29.99,NW,316,0.0,1.0,60,0.00,,---,0.00,VWS V13.00,2013-10-27 23:14:00,
2013-10-27 19:19:00,42.3,29.8,30.00,NW,316,0.0,1.0,61,0.00,,---,0.00,VWS V13.00,2013-10-27 23:19:00,
2013-10-27 19:24:00,42.0,29.1,30.00,NW,317,2.0,4.0,60,0.00,,---,0.00,VWS V13.00,2013-10-27 23:24:00,
2013-10-27 19:29:00,41.8,29.0,30.00,NW,317,0.0,4.0,60,0.00,,---,0.00,VWS V13.00,2013-10-27 23:29:00,
2013-10-27 19:34:00,41.6,29.2,30.00,NW,317,0.0,4.0,61,0.00,,---,0.00,VWS V13.00,2013-10-27 23:34:00,
2013-10-27 19:39:00,41.5,29.1,30.00,NW,317,0.0,2.0,61,0.00,,---,0.00,VWS V13.00,2013-10-27 23:39:00,
2013-10-27 19:44:00,41.4,29.4,30.00,NW,317,0.0,2.0,62,0.00,,---,0.00,VWS V13.00,2013-10-27 23:44:00,
2013-10-27 19:49:00,41.3,29.3,30.00,NW,317,0.0,2.0,62,0.00,,---,0.00,VWS V13.00,2013-10-27 23:49:00,
2013-10-27 19:54:00,41.2,29.2,30.00,NW,317,0.0,2.0,62,0.00,,---,0.00,VWS V13.00,2013-10-27 23:54:00,
2013-10-27 19:59:00,41.1,29.9,30.00,NW,317,0.0,2.0,64,0.00,,---,0.00,VWS V13.00,2013-10-27 23:59:00,
2013-10-27 20:04:00,40.9,29.7,30.01,NW,317,0.0,2.0,64,0.00,,---,0.00,VWS V13.00,2013-10-28 00:04:00,
2013-10-27 20:09:00,40.5,29.7,30.00,NW,317,0.0,0.0,65,0.00,,---,0.00,VWS V13.00,2013-10-28 00:09:00,
2013-10-27 20:14:00,40.2,29.8,30.00,NW,317,0.0,0.0,66,0.00,,---,0.00,VWS V13.00,2013-10-28 00:14:00,
2013-10-27 20:19:00,40.1,30.0,30.00,NW,317,0.0,0.0,67,0.00,,---,0.00,VWS V13.00,2013-10-28 00:19:00,
2013-10-27 20:24:00,39.9,29.9,30.00,NW,317,0.0,0.0,67,0.00,,---,0.00,VWS V13.00,2013-10-28 00:24:00,
2013-10-27 20:29:00,39.8,29.8,30.00,NW,317,0.0,0.0,67,0.00,,---,0.00,VWS V13.00,2013-10-28 00:29:00,
2013-10-27 20:34:00,39.6,29.9,30.01,NW,317,0.0,0.0,68,0.00,,---,0.00,VWS V13.00,2013-10-28 00:34:00,
2013-10-27 20:39:00,39.3,29.6,30.01,NW,317,0.0,0.0,68,0.00,,---,0.00,VWS V13.00,2013-10-28 00:39:00,
2013-10-27 20:44:00,39.1,29.5,30.01,NW,317,0.0,0.0,68,0.00,,---,0.00,VWS V13.00,2013-10-28 00:44:00,
2013-10-27 20:49:00,39.0,29.7,30.02,NW,317,0.0,0.0,69,0.00,,---,0.00,VWS V13.00,2013-10-28 00:49:00,
2013-10-27 20:54:00,39.0,29.7,30.02,NW,317,1.0,1.0,69,0.00,,---,0.00,VWS V13.00,2013-10-28 00:54:00,
2013-10-27 20:59:00,39.2,29.5,30.02,NW,317,0.0,1.0,68,0.00,,---,0.00,VWS V13.00,2013-10-28 00:59:00,
2013-10-27 21:04:00,39.5,29.8,30.02,NW,317,0.0,1.0,68,0.00,,---,0.00,VWS V13.00,2013-10-28 01:04:00,
2013-10-27 21:09:00,39.8,29.8,30.02,NW,317,0.0,1.0,67,0.00,,---,0.00,VWS V13.00,2013-10-28 01:09:00,
2013-10-27 21:14:00,40.1,30.4,30.02,NW,317,0.0,1.0,68,0.00,,---,0.00,VWS V13.00,2013-10-28 01:14:00,
2013-10-27 21:19:00,40.0,29.9,30.02,NW,317,0.0,1.0,67,0.00,,---,0.00,VWS V13.00,2013-10-28 01:19:00,
2013-10-27 21:24:00,39.8,30.1,30.02,NW,317,0.0,1.0,68,0.00,,---,0.00,VWS V13.00,2013-10-28 01:24:00,
2013-10-27 21:29:00,39.7,30.4,30.03,NW,317,0.0,1.0,69,0.00,,---,0.00,VWS V13.00,2013-10-28 01:29:00,
2013-10-27 21:34:00,39.5,30.5,30.03,NW,317,0.0,1.0,70,0.00,,---,0.00,VWS V13.00,2013-10-28 01:34:00,
2013-10-27 21:39:00,39.2,30.2,30.03,NW,317,0.0,0.0,70,0.00,,---,0.00,VWS V13.00,2013-10-28 01:39:00,
2013-10-27 21:44:00,38.9,30.3,30.03,NW,317,0.0,0.0,71,0.00,,---,0.00,VWS V13.00,2013-10-28 01:44:00,
2013-10-27 21:49:00,38.7,29.8,30.04,NW,317,0.0,0.0,70,0.00,,---,0.00,VWS V13.00,2013-10-28 01:49:00,
2013-10-27 21:54:00,38.6,30.0,30.04,WNW,292,0.0,4.0,71,0.00,,---,0.00,VWS V13.00,2013-10-28 01:54:00,
2013-10-27 21:59:00,38.7,30.1,30.04,WNW,293,1.0,4.0,71,0.00,,---,0.00,VWS V13.00,2013-10-28 01:59:00,
2013-10-27 22:04:00,38.8,30.2,30.04,WNW,293,0.0,4.0,71,0.00,,---,0.00,VWS V13.00,2013-10-28 02:04:00,
2013-10-27 22:09:00,38.8,30.2,30.05,WNW,292,0.0,0.0,71,0.00,,---,0.00,VWS V13.00,2013-10-28 02:09:00,
2013-10-27 22:14:00,38.9,30.7,30.05,West,280,0.0,2.0,72,0.00,,---,0.00,VWS V13.00,2013-10-28 02:14:00,
2013-10-27 22:19:00,39.1,30.9,30.05,West,281,0.0,2.0,72,0.00,,---,0.00,VWS V13.00,2013-10-28 02:19:00,
2013-10-27 22:24:00,39.1,31.2,30.05,West,269,0.0,2.0,73,0.00,,---,0.00,VWS V13.00,2013-10-28 02:24:00,
2013-10-27 22:29:00,39.2,31.6,30.06,WSW,257,0.0,3.0,74,0.00,,---,0.00,VWS V13.00,2013-10-28 02:29:00,
2013-10-27 22:34:00,39.1,31.5,30.05,WSW,257,1.0,3.0,74,0.00,,---,0.00,VWS V13.00,2013-10-28 02:34:00,
2013-10-27 22:39:00,39.1,31.5,30.06,WSW,257,2.0,3.0,74,0.00,,---,0.00,VWS V13.00,2013-10-28 02:39:00,
2013-10-27 22:44:00,39.0,31.8,30.06,WSW,257,1.0,3.0,75,0.00,,---,0.00,VWS V13.00,2013-10-28 02:44:00,
2013-10-27 22:49:00,38.8,31.6,30.06,WSW,258,0.0,3.0,75,0.00,,---,0.00,VWS V13.00,2013-10-28 02:49:00,
2013-10-27 22:54:00,38.5,31.3,30.06,WSW,258,0.0,3.0,75,0.00,,---,0.00,VWS V13.00,2013-10-28 02:54:00,
2013-10-27 22:59:00,38.0,31.1,30.06,WSW,257,0.0,3.0,76,0.00,,---,0.00,VWS V13.00,2013-10-28 02:59:00,
2013-10-27 23:04:00,37.4,30.9,30.07,WSW,257,0.0,3.0,77,0.00,,---,0.00,VWS V13.00,2013-10-28 03:04:00,
2013-10-27 23:09:00,37.0,30.8,30.06,WSW,257,0.0,2.0,78,0.00,,---,0.00,VWS V13.00,2013-10-28 03:09:00,
2013-10-27 23:14:00,36.9,31.0,30.06,WSW,258,0.0,2.0,79,0.00,,---,0.00,VWS V13.00,2013-10-28 03:14:00,
2013-10-27 23:19:00,37.0,31.1,30.06,WSW,258,0.0,2.0,79,0.00,,---,0.00,VWS V13.00,2013-10-28 03:19:00,
2013-10-27 23:24:00,37.1,31.5,30.06,WSW,258,0.0,2.0,80,0.00,,---,0.00,VWS V13.00,2013-10-28 03:24:00,
2013-10-27 23:29:00,37.1,31.5,30.06,WSW,257,0.0,2.0,80,0.00,,---,0.00,VWS V13.00,2013-10-28 03:29:00,
2013-10-27 23:34:00,37.2,31.6,30.06,WSW,258,0.0,2.0,80,0.00,,---,0.00,VWS V13.00,2013-10-28 03:34:00,
2013-10-27 23:39:00,37.2,31.6,30.06,WSW,258,0.0,1.0,80,0.00,,---,0.00,VWS V13.00,2013-10-28 03:39:00,
2013-10-27 23:44:00,37.2,31.6,30.06,WSW,257,0.0,3.0,80,0.00,,---,0.00,VWS V13.00,2013-10-28 03:44:00,
2013-10-27 23:49:00,37.1,31.8,30.06,WSW,258,0.0,3.0,81,0.00,,---,0.00,VWS V13.00,2013-10-28 03:49:00,
2013-10-27 23:54:00,37.0,31.7,30.06,WSW,257,0.0,3.0,81,0.00,,---,0.00,VWS V13.00,2013-10-28 03:54:00,
2013-10-27 23:59:00,36.9,31.6,30.06,WSW,257,0.0,3.0,81,0.00,,---,0.00,VWS V13.00,2013-10-28 03:59:00,